This demonstration page uses our WeatherBlox Daily Observations layout. Learn more.

Left ArrowRight Arrow

38.20091, -84.87328

Hourly Observations for August 5, 2019

Temp ( °F °C ) Dew Point ( °F °C ) Humidity (%) Winds ( mph kmh ) Pressure ( in mb ) Visibility ( mi km ) Precip ( " mm )
12:53 am 00:53 Clear 67 19.4 62 16.7 84 84 Calm 29.98 1015 10 16 0.00 0.00
1:53 am 01:53 Clear 65 18.3 62 16.7 90 90 Calm 29.97 1015 10 16 0.00 0.00
2:53 am 02:53 Clear 64 17.8 62 16.7 93 93 N 3 6 29.97 1015 10 16 0.00 0.00
3:53 am 03:53 Clear 64 17.8 61 16.1 90 90 Calm 29.97 1015 10 16 0.00 0.00
4:53 am 04:53 Clear 63 17.2 61 16.1 93 93 Calm 29.97 1015 10 16 0.00 0.00
5:53 am 05:53 Clear 63 17.2 61 16.1 93 93 Calm 29.97 1015 10 16 0.00 0.00
6:53 am 06:53 Sunny 63 17.2 60 15.6 90 90 Calm 29.98 1015 10 16 0.00 0.00
7:53 am 07:53 Sunny 66 18.9 63 17.2 90 90 Calm 29.98 1015 10 16 0.00 0.00
8:53 am 08:53 Sunny 73 22.8 66 18.9 79 79 Calm 29.99 1016 10 16 0.00 0.00
9:53 am 09:53 Sunny 78 25.6 65 18.3 64 64 Calm 30.00 1016 10 16 0.00 0.00
10:53 am 10:53 Sunny 83 28.3 64 17.8 53 53 Calm 30.00 1016 10 16 0.00 0.00
11:53 am 11:53 Sunny 86 30 63 17.2 46 46 Calm 29.99 1016 10 16 0.00 0.00
12:53 pm 12:53 Partly Cloudy 86 30 62 16.7 45 45 Calm 29.99 1016 10 16 0.00 0.00
1:53 pm 13:53 Sunny 87 30.6 63 17.2 45 45 Calm 29.97 1015 10 16 0.00 0.00
2:53 pm 14:53 Sunny 89 31.7 63 17.2 42 42 undefined N/A 29.96 1015 10 16 0.00 0.00
3:53 pm 15:53 Sunny 89 31.7 62 16.7 41 41 WNW 7 11 29.94 1014 10 16 0.00 0.00
4:53 pm 16:53 Sunny 88 31.1 62 16.7 42 42 W 3 6 29.93 1014 10 16 0.00 0.00
5:53 pm 17:53 Partly Cloudy 88 31.1 62 16.7 42 42 VRB 3 6 29.91 1013 10 16 0.00 0.00
6:53 pm 18:53 Partly Cloudy 88 31.1 59 15 38 38 W 5 7 29.90 1013 10 16 0.00 0.00
7:53 pm 19:53 Sunny 87 30.6 60 15.6 40 40 NW 3 6 29.89 1012 10 16 0.00 0.00
8:53 pm 20:53 Clear 77 25 65 18.3 66 66 Calm 29.89 1012 10 16 0.00 0.00
9:53 pm 21:53 Mostly Cloudy 75 23.9 65 18.3 71 71 Calm 29.90 1012 10 16 0.00 0.00
10:53 pm 22:53 Mostly Clear 73 22.8 65 18.3 76 76 Calm 29.90 1013 10 16 0.00 0.00
11:53 pm 23:53 Clear 72 22.2 65 18.3 79 79 Calm 29.91 1013 10 16 0.00 0.00

Powered by AerisWeather